• In Hungary
  • List of Countries
  • For 7 days
  • Water Temperature
  • Satellite Maps
  • Weather Map
  • News
  • Weather Widgets
  • user-avatar
    Login

    Hourly Weather Roszkowo

    Today, 26 September, Wednesday

    Time Temperature Precipitation Wind Pressure Humidity
    00:00 +6°C° 0 mm 5 mps 775 mmHg 68%
    01:00 +6°C° 0 mm 5 mps 775 mmHg 73%
    02:00 +6°C° 0 mm 5 mps 774 mmHg 74%
    03:00 +5°C° 0 mm 6 mps 774 mmHg 76%
    04:00 +5°C° 0 mm 6 mps 774 mmHg 77%
    05:00 +5°C° 0 mm 6 mps 774 mmHg 74%
    06:00 +6°C° 0 mm 7 mps 773 mmHg 71%
    07:00 +6°C° 0 mm 7 mps 773 mmHg 68%
    08:00 +7°C° 0.1 mm 8 mps 773 mmHg 68%
    09:00 +9°C° 0.1 mm 8 mps 772 mmHg 68%
    10:00 +8°C° 0.1 mm 9 mps 772 mmHg 68%
    11:00 +8°C° 0.3 mm 9 mps 771 mmHg 69%
    12:00 +8°C° 0.3 mm 9 mps 771 mmHg 69%
    13:00 +8°C° 0.3 mm 9 mps 770 mmHg 70%
    14:00 +8°C° 0.4 mm 9 mps 769 mmHg 69%
    15:00 +9°C° 0.4 mm 10 mps 768 mmHg 69%
    16:00 +9°C° 0.4 mm 10 mps 767 mmHg 68%
    17:00 +9°C° 0.3 mm 10 mps 767 mmHg 67%
    18:00 +11°C° 0.3 mm 10 mps 766 mmHg 66%
    19:00 +11°C° 0.3 mm 10 mps 766 mmHg 66%
    20:00 +12°C° 0.1 mm 10 mps 766 mmHg 68%
    21:00 +12°C° 0.1 mm 10 mps 765 mmHg 70%
    22:00 +13°C° 0.1 mm 10 mps 765 mmHg 72%
    23:00 +13°C° 0.1 mm 10 mps 765 mmHg 75%

    Tomorrow, 27 September, Thursday

    Time Temperature Precipitation Wind Pressure Humidity
    00:00 +14°C° 0.1 mm 10 mps 765 mmHg 79%
    01:00 +15°C° 0.1 mm 9 mps 764 mmHg 82%
    02:00 +15°C° 0.2 mm 9 mps 764 mmHg 83%
    03:00 +15°C° 0.2 mm 9 mps 764 mmHg 85%
    04:00 +16°C° 0.2 mm 9 mps 764 mmHg 86%
    05:00 +16°C° 0.1 mm 8 mps 764 mmHg 86%
    06:00 +16°C° 0.1 mm 8 mps 765 mmHg 85%
    07:00 +16°C° 0.1 mm 8 mps 765 mmHg 85%
    08:00 +16°C° 0.1 mm 8 mps 765 mmHg 83%
    09:00 +16°C° 0.1 mm 7 mps 766 mmHg 81%
    10:00 +16°C° 0.1 mm 7 mps 766 mmHg 79%
    11:00 +17°C° 0.1 mm 7 mps 766 mmHg 79%
    12:00 +17°C° 0.1 mm 7 mps 766 mmHg 79%
    13:00 +17°C° 0.1 mm 7 mps 765 mmHg 78%
    14:00 +17°C° 0 mm 7 mps 765 mmHg 78%
    15:00 +17°C° 0 mm 7 mps 765 mmHg 77%
    16:00 +17°C° 0 mm 7 mps 764 mmHg 76%
    17:00 +17°C° 0 mm 7 mps 764 mmHg 78%
    18:00 +17°C° 0 mm 7 mps 763 mmHg 80%
    19:00 +16°C° 0 mm 7 mps 763 mmHg 81%
    20:00 +17°C° 0 mm 7 mps 762 mmHg 81%
    21:00 +17°C° 0 mm 7 mps 761 mmHg 81%
    22:00 +17°C° 0 mm 7 mps 761 mmHg 80%
    23:00 +17°C° 0.2 mm 8 mps 760 mmHg 80%

    Day after tomorrow, 28 September, Friday

    Time Temperature Precipitation Wind Pressure Humidity
    00:00 +17°C° 0.2 mm 8 mps 760 mmHg 81%
    01:00 +16°C° 0.2 mm 8 mps 759 mmHg 81%
    02:00 +16°C° 0.5 mm 8 mps 759 mmHg 81%
    03:00 +15°C° 0.5 mm 8 mps 759 mmHg 82%
    04:00 +15°C° 0.5 mm 8 mps 759 mmHg 82%
    05:00 +14°C° 0.1 mm 7 mps 759 mmHg 79%
    06:00 +12°C° 0.1 mm 7 mps 760 mmHg 76%
    07:00 +11°C° 0.1 mm 6 mps 760 mmHg 73%
    08:00 +12°C° 0 mm 7 mps 760 mmHg 68%
    09:00 +12°C° 0 mm 7 mps 761 mmHg 64%
    10:00 +14°C° 0 mm 7 mps 762 mmHg 59%
    11:00 +14°C° 0 mm 7 mps 762 mmHg 57%
    12:00 +15°C° 0 mm 7 mps 762 mmHg 55%
    13:00 +15°C° 0 mm 6 mps 762 mmHg 53%
    14:00 +14°C° 0 mm 6 mps 763 mmHg 54%
    15:00 +14°C° 0 mm 6 mps 763 mmHg 55%
    16:00 +13°C° 0 mm 6 mps 763 mmHg 57%
    17:00 +12°C° 0 mm 5 mps 763 mmHg 61%
    18:00 +11°C° 0 mm 4 mps 763 mmHg 66%
    19:00 +10°C° 0 mm 3 mps 764 mmHg 71%
    20:00 +10°C° 0 mm 3 mps 764 mmHg 72%
    21:00 +9°C° 0 mm 2 mps 764 mmHg 72%
    22:00 +9°C° 0 mm 2 mps 765 mmHg 73%
    23:00 +8°C° 0.1 mm 2 mps 765 mmHg 74%

    29 September, Saturday

    Time Temperature Precipitation Wind Pressure Humidity
    00:00 +8°C° 0.1 mm 2 mps 765 mmHg 74%
    01:00 +8°C° 0.1 mm 2 mps 765 mmHg 75%
    02:00 +8°C° 0.2 mm 2 mps 765 mmHg 75%
    03:00 +8°C° 0.2 mm 2 mps 766 mmHg 76%
    04:00 +8°C° 0.2 mm 2 mps 766 mmHg 76%
    05:00 +8°C° 0.1 mm 2 mps 767 mmHg 75%
    06:00 +8°C° 0.1 mm 2 mps 767 mmHg 73%
    07:00 +9°C° 0.1 mm 2 mps 767 mmHg 72%
    08:00 +10°C° 0 mm 3 mps 768 mmHg 64%
    09:00 +11°C° 0 mm 3 mps 769 mmHg 55%
    10:00 +13°C° 0 mm 4 mps 769 mmHg 47%
    11:00 +13°C° 0 mm 3 mps 769 mmHg 45%
    12:00 +13°C° 0 mm 3 mps 769 mmHg 42%
    13:00 +14°C° 0 mm 3 mps 770 mmHg 40%
    14:00 +14°C° 0 mm 2 mps 770 mmHg 41%
    15:00 +14°C° 0 mm 2 mps 770 mmHg 42%
    16:00 +14°C° 0 mm 2 mps 770 mmHg 42%
    17:00 +12°C° 0 mm 2 mps 770 mmHg 47%
    18:00 +11°C° 0 mm 1 mps 770 mmHg 51%
    19:00 +9°C° 0 mm 1 mps 770 mmHg 56%
    20:00 +8°C° 0 mm 2 mps 770 mmHg 57%
    21:00 +8°C° 0 mm 2 mps 770 mmHg 59%
    22:00 +7°C° 0 mm 3 mps 770 mmHg 61%
    23:00 +7°C° 0 mm 3 mps 770 mmHg 63%

    30 September, Sunday

    Time Temperature Precipitation Wind Pressure Humidity
    00:00 +7°C° 0 mm 3 mps 770 mmHg 64%
    01:00 +6°C° 0 mm 4 mps 770 mmHg 66%
    02:00 +5°C° 0 mm 4 mps 769 mmHg 66%
    03:00 +5°C° 0 mm 4 mps 769 mmHg 66%
    04:00 +5°C° 0 mm 4 mps 769 mmHg 67%
    05:00 +6°C° 0 mm 4 mps 769 mmHg 67%
    06:00 +6°C° 0 mm 5 mps 769 mmHg 67%
    07:00 +6°C° 0 mm 5 mps 768 mmHg 67%
    08:00 +8°C° 0 mm 5 mps 768 mmHg 61%
    09:00 +10°C° 0 mm 5 mps 768 mmHg 56%
    10:00 +13°C° 0 mm 6 mps 768 mmHg 51%
    11:00 +13°C° 0 mm 6 mps 768 mmHg 49%
    12:00 +14°C° 0 mm 6 mps 767 mmHg 46%
    13:00 +15°C° 0 mm 6 mps 767 mmHg 44%
    14:00 +14°C° 0 mm 5 mps 766 mmHg 46%
    15:00 +14°C° 0 mm 5 mps 766 mmHg 47%
    16:00 +14°C° 0 mm 4 mps 765 mmHg 49%
    17:00 +13°C° 0 mm 4 mps 765 mmHg 53%
    18:00 +11°C° 0 mm 4 mps 765 mmHg 57%
    19:00 +10°C° 0 mm 3 mps 765 mmHg 62%
    20:00 +9°C° 0 mm 3 mps 765 mmHg 63%
    21:00 +8°C° 0 mm 4 mps 765 mmHg 65%
    22:00 +8°C° 0 mm 4 mps 764 mmHg 66%
    23:00 +7°C° 0 mm 4 mps 764 mmHg 68%

    1 October, Monday

    Time Temperature Precipitation Wind Pressure Humidity
    00:00 +7°C° 0 mm 4 mps 764 mmHg 69%
    01:00 +7°C° 0 mm 4 mps 763 mmHg 70%
    02:00 +6°C° 0 mm 4 mps 763 mmHg 71%
    03:00 +6°C° 0 mm 4 mps 762 mmHg 71%
    04:00 +6°C° 0 mm 4 mps 762 mmHg 72%
    05:00 +6°C° 0 mm 4 mps 762 mmHg 70%
    06:00 +6°C° 0 mm 4 mps 761 mmHg 69%
    07:00 +6°C° 0 mm 4 mps 761 mmHg 68%
    08:00 +8°C° 0 mm 4 mps 761 mmHg 62%
    09:00 +11°C° 0 mm 4 mps 760 mmHg 55%
    10:00 +13°C° 0 mm 4 mps 760 mmHg 49%
    11:00 +14°C° 0 mm 3 mps 760 mmHg 46%
    12:00 +14°C° 0 mm 3 mps 759 mmHg 44%
    13:00 +16°C° 0 mm 3 mps 759 mmHg 41%
    14:00 +16°C° 0 mm 2 mps 758 mmHg 44%
    15:00 +16°C° 0 mm 2 mps 758 mmHg 47%
    16:00 +15°C° 0 mm 1 mps 758 mmHg 50%
    17:00 +14°C° 0 mm 1 mps 757 mmHg 54%
    18:00 +13°C° 0 mm 2 mps 757 mmHg 58%
    19:00 +12°C° 0 mm 2 mps 757 mmHg 62%
    20:00 +12°C° 0 mm 2 mps 757 mmHg 65%
    21:00 +10°C° 0 mm 2 mps 757 mmHg 68%
    22:00 +10°C° 0 mm 2 mps 757 mmHg 71%
    23:00 +11°C° 0 mm 1 mps 756 mmHg 72%
    Show more